Location: Barrio Las Umbrías
(40.4173°N, 4.8685°W)
Time: 14:07:53
(UTC+00:00)

DELTA 2 R/B (1) - Pass Details

Date: 17 August 2022
Orbit: 790 x 802 km, 39.6° (Epoch: 27 September)

Event Time Altitude Azimuth Distance (km) Brightness Sun altitude
Rises 21:00:16 0° 242° (WSW) 3,284 7.1 -18.7°
Reaches altitude 10° 21:02:46 10° 238° (WSW) 2,358 6.3 -19.1°
Maximum altitude 21:08:12 56° 161° (SSE) 940 3.6 -19.9°
Enters shadow 21:10:08 37° 104° (ESE) 1,214 4.1 -20.2°
